| time (UTC) | temp C | wind direction | speed KPH | gust KPH | rain 1hr cm | rain 24hr cm | rain mn cm | humidity % | barometer mb |
| 20260906212515 | 13 | 236 | 1.6 | 4.8 | 0.00 | 0.00 | 0.00 | 1022.6 | |
| 20260906212015 | 13 | 217 | 3.2 | 4.8 | 0.00 | 0.00 | 0.00 | 1022.6 | |
| 20260906211528 | 13 | 217 | 1.6 | 4.8 | 0.00 | 0.00 | 0.00 | 1022.6 | |
| 20260906211017 | 13 | 209 | 1.6 | 6.4 | 0.00 | 0.00 | 0.00 | 1022.7 | |
| 20260906210514 | 13 | 201 | 3.2 | 8.0 | 0.00 | 0.00 | 0.00 | 86 | 1022.7 |
| 20260906210007 | 13 | 218 | 3.2 | 8.0 | 0.00 | 0.00 | 0.00 | 86 | 1022.7 |
| 20260906205504 | 13 | 219 | 3.2 | 6.4 | 0.00 | 0.00 | 0.00 | 86 | 1022.7 |
| 20260906205008 | 13 | 205 | 1.6 | 4.8 | 0.00 | 0.00 | 0.00 | 86 | 1022.7 |
| 20260906204514 | 13 | 246 | 1.6 | 4.8 | 0.00 | 0.00 | 0.00 | 86 | 1022.7 |
| 20260906204010 | 13 | 248 | 3.2 | 6.4 | 0.00 | 0.00 | 0.00 | 1022.7 | |
| 20260906203513 | 13 | 240 | 3.2 | 6.4 | 0.00 | 0.00 | 0.00 | 1022.7 | |
| 20260906203023 | 13 | 205 | 3.2 | 4.8 | 0.00 | 0.00 | 0.00 | 1022.6 | |
| 20260906202513 | 13 | 236 | 1.6 | 4.8 | 0.00 | 0.00 | 0.00 | 86 | 1022.6 |
| 20260906202016 | 13 | 220 | 3.2 | 4.8 | 0.00 | 0.00 | 0.00 | 86 | 1022.6 |
| 20260906201529 | 12 | 221 | 3.2 | 4.8 | 0.00 | 0.00 | 0.00 | 86 | 1022.6 |
| 20260906201017 | 12 | 225 | 3.2 | 4.8 | 0.00 | 0.00 | 0.00 | 86 | 1022.6 |
| 20260906200514 | 13 | 242 | 3.2 | 6.4 | 0.00 | 0.00 | 0.00 | 86 | 1022.7 |
| 20260906200007 | 13 | 246 | 3.2 | 6.4 | 0.00 | 0.00 | 0.00 | 86 | 1022.7 |
| 20260906195507 | 13 | 225 | 3.2 | 4.8 | 0.00 | 0.00 | 0.00 | 85 | 1022.7 |
| 20260906195009 | 13 | 200 | 1.6 | 4.8 | 0.00 | 0.00 | 0.00 | 86 | 1022.7 |
| 20260906194519 | 13 | 201 | 1.6 | 4.8 | 0.00 | 0.00 | 0.00 | 86 | 1022.8 |
| 20260906194013 | 13 | 186 | 1.6 | 3.2 | 0.00 | 0.00 | 0.00 | 86 | 1022.8 |
| 20260906193512 | 13 | 186 | 0.0 | 3.2 | 0.00 | 0.00 | 0.00 | 87 | 1022.9 |
| 20260906193024 | 13 | 186 | 0.0 | 3.2 | 0.00 | 0.00 | 0.00 | 87 | 1022.9 |
| 20260906192514 | 13 | 252 | 1.6 | 3.2 | 0.00 | 0.00 | 0.00 | 87 | 1022.9 |
| 20260906192016 | 13 | 252 | 1.6 | 3.2 | 0.00 | 0.00 | 0.00 | 87 | 1022.8 |
| 20260906191529 | 12 | 252 | 0.0 | 3.2 | 0.00 | 0.00 | 0.00 | 87 | 1022.8 |
| 20260906191017 | 12 | 252 | 0.0 | 3.2 | 0.00 | 0.00 | 0.00 | 87 | 1022.8 |
| 20260906190518 | 12 | 252 | 1.6 | 3.2 | 0.00 | 0.00 | 0.00 | 86 | 1022.8 |
| 20260906190012 | 12 | 252 | 0.0 | 3.2 | 0.00 | 0.00 | 0.00 | 86 | 1022.7 |
| 20260906185513 | 12 | 252 | 1.6 | 1.6 | 0.00 | 0.00 | 0.00 | 85 | 1022.8 |
| 20260906185012 | 13 | 252 | 0.0 | 1.6 | 0.00 | 0.00 | 0.00 | 85 | 1022.8 |
| 20260906184521 | 13 | 252 | 1.6 | 1.6 | 0.00 | 0.00 | 0.00 | 84 | 1022.8 |
| 20260906184012 | 13 | 252 | 0.0 | 1.6 | 0.00 | 0.00 | 0.00 | 83 | 1022.8 |
| 20260906183512 | 13 | 252 | 0.0 | 3.2 | 0.00 | 0.00 | 0.00 | 83 | 1022.7 |
| 20260906183034 | 13 | 252 | 1.6 | 3.2 | 0.00 | 0.00 | 0.00 | 82 | 1022.7 |
| 20260906182515 | 14 | 252 | 1.6 | 1.6 | 0.00 | 0.00 | 0.00 | 81 | 1022.7 |
| 20260906182016 | 14 | 252 | 1.6 | 1.6 | 0.00 | 0.00 | 0.00 | 82 | 1022.7 |
| 20260906181550 | 14 | 252 | 0.0 | 3.2 | 0.00 | 0.00 | 0.00 | 82 | 1022.8 |
| 20260906181018 | 14 | 252 | 0.0 | 3.2 | 0.00 | 0.00 | 0.00 | 79 | 1022.9 |
| 20260906180508 | 14 | 252 | 1.6 | 1.6 | 0.00 | 0.00 | 0.00 | 81 | 1022.8 |
| 20260906180013 | 15 | 252 | 1.6 | 1.6 | 0.00 | 0.00 | 0.00 | 80 | 1022.8 |
| 20260906175508 | 15 | 252 | 0.0 | 3.2 | 0.00 | 0.00 | 0.00 | 77 | 1022.8 |
| 20260906175011 | 15 | 252 | 0.0 | 3.2 | 0.00 | 0.00 | 0.00 | 77 | 1022.8 |
| 20260906174523 | 15 | 252 | 0.0 | 1.6 | 0.00 | 0.00 | 0.00 | 78 | 1022.7 |
| 20260906174012 | 15 | 252 | 1.6 | 3.2 | 0.00 | 0.00 | 0.00 | 77 | 1022.7 |
| 20260906173515 | 15 | 252 | 0.0 | 3.2 | 0.00 | 0.00 | 0.00 | 78 | 1022.7 |
| 20260906173029 | 15 | 261 | 0.0 | 4.8 | 0.00 | 0.00 | 0.00 | 77 | 1022.8 |
| 20260906172520 | 15 | 252 | 0.0 | 6.4 | 0.00 | 0.00 | 0.00 | 74 | 1022.7 |
| 20260906172019 | 15 | 257 | 3.2 | 8.0 | 0.00 | 0.00 | 0.00 | 74 | 1022.7 |
| 20260906171537 | 15 | 252 | 3.2 | 8.0 | 0.00 | 0.00 | 0.00 | 74 | 1022.7 |
| 20260906171018 | 16 | 304 | 1.6 | 6.4 | 0.00 | 0.00 | 0.00 | 72 | 1022.7 |
| 20260906170510 | 16 | 261 | 1.6 | 9.7 | 0.00 | 0.00 | 0.00 | 73 | 1022.8 |
| 20260906170021 | 16 | 268 | 4.8 | 9.7 | 0.00 | 0.00 | 0.00 | 72 | 1022.8 |
| 20260906165512 | 16 | 267 | 3.2 | 9.7 | 0.00 | 0.00 | 0.00 | 73 | 1022.8 |
| 20260906165012 | 16 | 257 | 4.8 | 11.3 | 0.00 | 0.00 | 0.00 | 73 | 1022.8 |
| 20260906164526 | 16 | 248 | 6.4 | 11.3 | 0.00 | 0.00 | 0.00 | 72 | 1022.9 |
| 20260906164014 | 16 | 254 | 8.0 | 11.3 | 0.00 | 0.00 | 0.00 | 71 | 1022.9 |
| 20260906163513 | 16 | 276 | 4.8 | 19.3 | 0.00 | 0.00 | 0.00 | 71 | 1022.8 |
| 20260906163006 | 16 | 261 | 3.2 | 19.3 | 0.00 | 0.00 | 0.00 | 70 | 1022.8 |
| 20260906162507 | 16 | 271 | 6.4 | 12.9 | 0.00 | 0.00 | 0.00 | 70 | 1022.8 |
| 20260906162007 | 16 | 266 | 8.0 | 16.1 | 0.00 | 0.00 | 0.00 | 68 | 1022.9 |
| 20260906161511 | 16 | 254 | 6.4 | 20.9 | 0.00 | 0.00 | 0.00 | 69 | 1022.9 |
| 20260906161009 | 16 | 253 | 9.7 | 20.9 | 0.00 | 0.00 | 0.00 | 68 | 1022.8 |
| 20260906160512 | 16 | 286 | 4.8 | 19.3 | 0.00 | 0.00 | 0.00 | 66 | 1022.7 |
| 20260906160023 | 17 | 284 | 9.7 | 20.9 | 0.00 | 0.00 | 0.00 | 65 | 1022.7 |
| 20260906155514 | 17 | 259 | 12.9 | 22.5 | 0.00 | 0.00 | 0.00 | 62 | 1022.7 |
| 20260906155014 | 17 | 246 | 11.3 | 25.7 | 0.00 | 0.00 | 0.00 | 64 | 1022.7 |
| 20260906154526 | 17 | 352 | 17.7 | 25.7 | 0.00 | 0.00 | 0.00 | 62 | 1022.6 |
| 20260906154016 | 17 | 290 | 12.9 | 25.7 | 0.00 | 0.00 | 0.00 | 63 | 1022.6 |
| 20260906153516 | 17 | 252 | 12.9 | 27.4 | 0.00 | 0.00 | 0.00 | 62 | 1022.6 |
| 20260906153007 | 17 | 314 | 14.5 | 27.4 | 0.00 | 0.00 | 0.00 | 61 | 1022.6 |
| 20260906152507 | 18 | 284 | 12.9 | 22.5 | 0.00 | 0.00 | 0.00 | 61 | 1022.6 |
| 20260906152014 | 18 | 309 | 11.3 | 22.5 | 0.00 | 0.00 | 0.00 | 62 | 1022.6 |
| 20260906151514 | 18 | 300 | 6.4 | 22.5 | 0.00 | 0.00 | 0.00 | 63 | 1022.5 |
| 20260906151010 | 18 | 257 | 12.9 | 29.0 | 0.00 | 0.00 | 0.00 | 62 | 1022.5 |
| 20260906150511 | 18 | 263 | 12.9 | 29.0 | 0.00 | 0.00 | 0.00 | 63 | 1022.6 |
| 20260906150029 | 17 | 274 | 16.1 | 33.8 | 0.00 | 0.00 | 0.00 | 61 | 1022.6 |
| 20260906145514 | 18 | 239 | 16.1 | 33.8 | 0.00 | 0.00 | 0.00 | 63 | 1022.6 |
| 20260906145015 | 18 | 278 | 9.7 | 25.7 | 0.00 | 0.00 | 0.00 | 63 | 1022.6 |
| 20260906144531 | 18 | 264 | 11.3 | 30.6 | 0.00 | 0.00 | 0.00 | 60 | 1022.6 |
| 20260906144016 | 18 | 274 | 12.9 | 30.6 | 0.00 | 0.00 | 0.00 | 64 | 1022.6 |
| 20260906143506 | 17 | 263 | 9.7 | 22.5 | 0.00 | 0.00 | 0.00 | 62 | 1022.6 |
| 20260906143010 | 18 | 294 | 12.9 | 22.5 | 0.00 | 0.00 | 0.00 | 61 | 1022.6 |
| 20260906142510 | 18 | 305 | 12.9 | 25.7 | 0.00 | 0.00 | 0.00 | 64 | 1022.6 |
| 20260906142010 | 18 | 274 | 14.5 | 27.4 | 0.00 | 0.00 | 0.00 | 64 | 1022.6 |
| 20260906141516 | 18 | 242 | 12.9 | 30.6 | 0.00 | 0.00 | 0.00 | 64 | 1022.6 |
| 20260906141018 | 17 | 279 | 14.5 | 30.6 | 0.00 | 0.00 | 0.00 | 62 | 1022.5 |
| 20260906140511 | 17 | 360 | 16.1 | 29.0 | 0.00 | 0.00 | 0.00 | 63 | 1022.5 |
| 20260906140027 | 17 | 360 | 12.9 | 30.6 | 0.00 | 0.00 | 0.00 | 65 | 1022.5 |
| 20260906135516 | 17 | 267 | 12.9 | 30.6 | 0.00 | 0.00 | 0.00 | 65 | 1022.5 |
| 20260906135016 | 17 | 246 | 11.3 | 25.7 | 0.00 | 0.00 | 0.00 | 65 | 1022.6 |
| 20260906134530 | 16 | 265 | 17.7 | 25.7 | 0.00 | 0.00 | 0.00 | 65 | 1022.5 |
| 20260906134016 | 16 | 256 | 14.5 | 25.7 | 0.00 | 0.00 | 0.00 | 67 | 1022.5 |
| 20260906133507 | 16 | 251 | 16.1 | 27.4 | 0.00 | 0.00 | 0.00 | 69 | 1022.5 |
| 20260906133010 | 17 | 236 | 16.1 | 27.4 | 0.00 | 0.00 | 0.00 | 66 | 1022.5 |
| 20260906132508 | 17 | 257 | 14.5 | 27.4 | 0.00 | 0.00 | 0.00 | 65 | 1022.5 |
| 20260906132011 | 18 | 254 | 11.3 | 25.7 | 0.00 | 0.00 | 0.00 | 65 | 1022.6 |
| 20260906131520 | 17 | 253 | 6.4 | 33.8 | 0.00 | 0.00 | 0.00 | 69 | 1022.5 |
| 20260906131011 | 17 | 248 | 16.1 | 33.8 | 0.00 | 0.00 | 0.00 | 66 | 1022.5 |
| 20260906130513 | 17 | 263 | 19.3 | 30.6 | 0.00 | 0.00 | 0.00 | 65 | 1022.4 |
| 20260906130002 | 17 | 261 | 19.3 | 30.6 | 0.00 | 0.00 | 0.00 | 66 | 1022.5 |
| 20260906125506 | 17 | 259 | 12.9 | 25.7 | 0.00 | 0.00 | 0.00 | 68 | 1022.5 |
| 20260906125002 | 17 | 273 | 11.3 | 20.9 | 0.00 | 0.00 | 0.00 | 68 | 1022.5 |
| 20260906124507 | 18 | 256 | 9.7 | 35.4 | 0.00 | 0.00 | 0.00 | 66 | 1022.3 |
| 20260906124016 | 17 | 282 | 8.0 | 35.4 | 0.00 | 0.00 | 0.00 | 67 | 1022.3 |
| 20260906123506 | 18 | 295 | 19.3 | 29.0 | 0.00 | 0.00 | 0.00 | 63 | 1022.3 |
| 20260906123018 | 18 | 249 | 11.3 | 27.4 | 0.00 | 0.00 | 0.00 | 69 | 1022.3 |
| 20260906122510 | 17 | 267 | 14.5 | 27.4 | 0.00 | 0.00 | 0.00 | 69 | 1022.3 |
| 20260906122014 | 18 | 244 | 11.3 | 27.4 | 0.00 | 0.00 | 0.00 | 67 | 1022.2 |
| 20260906121529 | 17 | 240 | 9.7 | 30.6 | 0.00 | 0.00 | 0.00 | 69 | 1022.2 |
| 20260906121015 | 18 | 309 | 11.3 | 30.6 | 0.00 | 0.00 | 0.00 | 67 | 1022.2 |
| 20260906120516 | 18 | 250 | 14.5 | 27.4 | 0.00 | 0.00 | 0.00 | 67 | 1022.1 |
| 20260906120005 | 17 | 304 | 12.9 | 29.0 | 0.00 | 0.00 | 0.00 | 66 | 1022.1 |
| 20260906115503 | 18 | 269 | 17.7 | 29.0 | 0.00 | 0.00 | 0.00 | 63 | 1022.1 |
| 20260906115003 | 20 | 283 | 12.9 | 29.0 | 0.00 | 0.00 | 0.00 | 64 | 1022.0 |
| 20260906114531 | 20 | 250 | 12.9 | 32.2 | 0.00 | 0.00 | 0.00 | 63 | 1022.0 |
| 20260906114008 | 18 | 306 | 17.7 | 35.4 | 0.00 | 0.00 | 0.00 | 65 | 1022.0 |
| 20260906113508 | 18 | 288 | 11.3 | 35.4 | 0.00 | 0.00 | 0.00 | 66 | 1022.1 |
| 20260906113016 | 20 | 283 | 17.7 | 33.8 | 0.00 | 0.00 | 0.00 | 63 | 1022.1 |
| 20260906112514 | 20 | 277 | 20.9 | 33.8 | 0.00 | 0.00 | 0.00 | 64 | 1022.0 |
| 20260906112014 | 19 | 327 | 14.5 | 33.8 | 0.00 | 0.00 | 0.00 | 67 | 1021.9 |
| 20260906111529 | 20 | 333 | 16.1 | 33.8 | 0.00 | 0.00 | 0.00 | 62 | 1021.9 |
| 20260906111016 | 20 | 302 | 14.5 | 33.8 | 0.00 | 0.00 | 0.00 | 66 | 1021.9 |
| 20260906110510 | 19 | 292 | 20.9 | 33.8 | 0.00 | 0.00 | 0.00 | 64 | 1021.8 |
| 20260906110008 | 18 | 287 | 9.7 | 30.6 | 0.00 | 0.00 | 0.00 | 67 | 1021.7 |
| 20260906105509 | 18 | 276 | 16.1 | 30.6 | 0.00 | 0.00 | 0.00 | 64 | 1021.7 |
| 20260906105005 | 19 | 265 | 22.5 | 37.0 | 0.00 | 0.00 | 0.00 | 62 | 1021.6 |
| 20260906104513 | 19 | 309 | 14.5 | 37.0 | 0.00 | 0.00 | 0.00 | 66 | 1021.7 |
| 20260906104008 | 20 | 321 | 14.5 | 32.2 | 0.00 | 0.00 | 0.00 | 64 | 1021.7 |
| 20260906103511 | 19 | 262 | 14.5 | 30.6 | 0.00 | 0.00 | 0.00 | 67 | 1021.4 |
| 20260906103020 | 18 | 280 | 16.1 | 32.2 | 0.00 | 0.00 | 0.00 | 66 | 1021.4 |
| 20260906102514 | 18 | 286 | 12.9 | 32.2 | 0.00 | 0.00 | 0.00 | 68 | 1021.4 |
| 20260906102014 | 18 | 286 | 19.3 | 32.2 | 0.00 | 0.00 | 0.00 | 65 | 1021.3 |
| 20260906101527 | 18 | 296 | 16.1 | 29.0 | 0.00 | 0.00 | 0.00 | 66 | 1021.3 |
| 20260906101020 | 18 | 290 | 14.5 | 29.0 | 0.00 | 0.00 | 0.00 | 68 | 1021.3 |
| 20260906100504 | 17 | 267 | 14.5 | 32.2 | 0.00 | 0.00 | 0.00 | 68 | 1021.4 |
| 20260906100008 | 17 | 261 | 9.7 | 32.2 | 0.00 | 0.00 | 0.00 | 71 | 1021.3 |
| 20260906095510 | 17 | 304 | 16.1 | 27.4 | 0.00 | 0.00 | 0.00 | 69 | 1021.1 |
| 20260906095009 | 17 | 275 | 12.9 | 27.4 | 0.00 | 0.00 | 0.00 | 69 | 1021.1 |
| 20260906094512 | 17 | 267 | 12.9 | 30.6 | 0.00 | 0.00 | 0.00 | 71 | 1021.0 |
| 20260906094010 | 17 | 267 | 11.3 | 30.6 | 0.00 | 0.00 | 0.00 | 73 | 1020.9 |
| 20260906093512 | 17 | 306 | 12.9 | 30.6 | 0.00 | 0.00 | 0.00 | 71 | 1020.9 |
| 20260906093023 | 18 | 313 | 14.5 | 30.6 | 0.00 | 0.00 | 0.00 | 68 | 1020.9 |
| 20260906092515 | 17 | 276 | 9.7 | 24.1 | 0.00 | 0.00 | 0.00 | 71 | 1020.8 |
| 20260906092016 | 17 | 349 | 11.3 | 41.8 | 0.00 | 0.00 | 0.00 | 70 | 1020.9 |
| 20260906091534 | 18 | 221 | 17.7 | 41.8 | 0.00 | 0.00 | 0.00 | 71 | 1020.7 |
| 20260906091007 | 17 | 273 | 12.9 | 29.0 | 0.00 | 0.00 | 0.00 | 74 | 1020.6 |
| 20260906090505 | 17 | 295 | 11.3 | 32.2 | 0.00 | 0.00 | 0.00 | 72 | 1020.6 |
| 20260906090011 | 17 | 298 | 14.5 | 32.2 | 0.00 | 0.00 | 0.00 | 73 | 1020.6 |
| 20260906085508 | 17 | 309 | 12.9 | 27.4 | 0.00 | 0.00 | 0.00 | 72 | 1020.6 |
| 20260906085011 | 16 | 265 | 9.7 | 33.8 | 0.00 | 0.00 | 0.00 | 74 | 1020.5 |
| 20260906084517 | 16 | 288 | 11.3 | 33.8 | 0.00 | 0.00 | 0.00 | 76 | 1020.5 |
| 20260906084011 | 16 | 300 | 14.5 | 29.0 | 0.00 | 0.00 | 0.00 | 75 | 1020.5 |
| 20260906083515 | 16 | 325 | 9.7 | 25.7 | 0.00 | 0.00 | 0.00 | 75 | 1020.5 |
| 20260906083029 | 16 | 304 | 12.9 | 30.6 | 0.00 | 0.00 | 0.00 | 75 | 1020.4 |
| 20260906082514 | 16 | 273 | 17.7 | 30.6 | 0.00 | 0.00 | 0.00 | 75 | 1020.4 |
| 20260906082017 | 16 | 290 | 14.5 | 35.4 | 0.00 | 0.00 | 0.00 | 76 | 1020.3 |
| 20260906081538 | 16 | 283 | 14.5 | 35.4 | 0.00 | 0.00 | 0.00 | 76 | 1020.3 |
| 20260906081005 | 16 | 311 | 12.9 | 32.2 | 0.00 | 0.00 | 0.00 | 77 | 1020.2 |
| 20260906080508 | 16 | 284 | 14.5 | 32.2 | 0.00 | 0.00 | 0.00 | 76 | 1020.2 |
| 20260906080013 | 16 | 237 | 12.9 | 25.7 | 0.00 | 0.00 | 0.00 | 77 | 1020.2 |
| 20260906075512 | 15 | 322 | 14.5 | 24.1 | 0.00 | 0.00 | 0.00 | 78 | 1020.2 |
| 20260906075016 | 15 | 315 | 9.7 | 27.4 | 0.00 | 0.00 | 0.00 | 79 | 1020.1 |
| 20260906074523 | 15 | 300 | 16.1 | 27.4 | 0.00 | 0.00 | 0.00 | 78 | 1020.0 |
| 20260906074016 | 15 | 261 | 14.5 | 25.7 | 0.00 | 0.00 | 0.00 | 78 | 1019.9 |
| 20260906073514 | 15 | 240 | 12.9 | 29.0 | 0.00 | 0.00 | 0.00 | 79 | 1019.9 |
| 20260906073026 | 15 | 267 | 16.1 | 33.8 | 0.00 | 0.00 | 0.00 | 78 | 1019.8 |
| 20260906072514 | 15 | 277 | 14.5 | 33.8 | 0.00 | 0.00 | 0.00 | 79 | 1019.7 |
| 20260906072017 | 15 | 271 | 16.1 | 29.0 | 0.00 | 0.00 | 0.00 | 78 | 1019.8 |
| 20260906071532 | 15 | 268 | 9.7 | 27.4 | 0.00 | 0.00 | 0.00 | 79 | 1019.8 |
| 20260906071020 | 15 | 280 | 12.9 | 27.4 | 0.00 | 0.00 | 0.00 | 80 | 1019.6 |
| 20260906070507 | 15 | 321 | 12.9 | 25.7 | 0.00 | 0.00 | 0.00 | 80 | 1019.7 |
| 20260906070035 | 15 | 275 | 14.5 | 25.7 | 0.00 | 0.00 | 0.00 | 80 | 1019.5 |
| 20260906065510 | 15 | 294 | 12.9 | 30.6 | 0.00 | 0.00 | 0.00 | 79 | 1019.4 |
| 20260906065014 | 15 | 269 | 16.1 | 30.6 | 0.00 | 0.00 | 0.00 | 80 | 1019.3 |
| 20260906064529 | 14 | 294 | 11.3 | 29.0 | 0.00 | 0.00 | 0.00 | 81 | 1019.3 |
| 20260906064015 | 14 | 309 | 14.5 | 29.0 | 0.00 | 0.00 | 0.00 | 80 | 1019.2 |
| 20260906063517 | 14 | 296 | 11.3 | 25.7 | 0.00 | 0.00 | 0.00 | 81 | 1019.2 |
| 20260906063027 | 14 | 258 | 16.1 | 25.7 | 0.00 | 0.00 | 0.00 | 81 | 1019.1 |
| 20260906062515 | 14 | 263 | 9.7 | 22.5 | 0.00 | 0.00 | 0.00 | 81 | 1019.0 |
| 20260906062014 | 14 | 284 | 11.3 | 27.4 | 0.00 | 0.00 | 0.00 | 81 | 1018.9 |
| 20260906061512 | 14 | 288 | 14.5 | 27.4 | 0.00 | 0.00 | 0.00 | 81 | 1018.9 |
| 20260906061010 | 14 | 273 | 11.3 | 37.0 | 0.00 | 0.00 | 0.00 | 82 | 1018.9 |
| 20260906060513 | 14 | 278 | 12.9 | 37.0 | 0.00 | 0.00 | 0.00 | 81 | 1018.8 |
| 20260906060019 | 14 | 284 | 14.5 | 32.2 | 0.00 | 0.00 | 0.00 | 81 | 1018.8 |
| 20260906055512 | 14 | 257 | 14.5 | 27.4 | 0.00 | 0.00 | 0.00 | 81 | 1018.7 |
| 20260906055018 | 14 | 279 | 9.7 | 27.4 | 0.00 | 0.00 | 0.00 | 82 | 1018.6 |
| 20260906054529 | 13 | 302 | 16.1 | 25.7 | 0.00 | 0.00 | 0.00 | 82 | 1018.6 |
| 20260906054014 | 13 | 281 | 14.5 | 24.1 | 0.00 | 0.00 | 0.00 | 82 | 1018.6 |
| 20260906053518 | 13 | 285 | 11.3 | 29.0 | 0.00 | 0.00 | 0.00 | 82 | 1018.5 |
| 20260906053032 | 13 | 266 | 14.5 | 30.6 | 0.00 | 0.00 | 0.00 | 82 | 1018.4 |
| 20260906052522 | 13 | 279 | 11.3 | 30.6 | 0.00 | 0.00 | 0.00 | 82 | 1018.3 |
| 20260906052019 | 13 | 288 | 14.5 | 27.4 | 0.00 | 0.00 | 0.00 | 82 | 1018.3 |
| 20260906051517 | 13 | 280 | 16.1 | 27.4 | 0.00 | 0.00 | 0.00 | 83 | 1018.3 |
| 20260906051012 | 13 | 261 | 12.9 | 29.0 | 0.00 | 0.00 | 0.00 | 83 | 1018.3 |
| 20260906050511 | 13 | 300 | 9.7 | 29.0 | 0.00 | 0.00 | 0.00 | 82 | 1018.2 |
| 20260906050023 | 13 | 253 | 14.5 | 27.4 | 0.00 | 0.00 | 0.00 | 82 | 1018.2 |
| 20260906045519 | 13 | 274 | 14.5 | 27.4 | 0.00 | 0.00 | 0.00 | 82 | 1018.2 |
| 20260906045019 | 13 | 251 | 9.7 | 27.4 | 0.00 | 0.00 | 0.00 | 82 | 1018.1 |
| 20260906044530 | 14 | 284 | 9.7 | 32.2 | 0.00 | 0.00 | 0.00 | 82 | 1018.0 |
| 20260906044019 | 14 | 257 | 12.9 | 32.2 | 0.00 | 0.00 | 0.00 | 82 | 1018.0 |
| 20260906043519 | 14 | 288 | 14.5 | 25.7 | 0.00 | 0.00 | 0.00 | 82 | 1017.9 |
| 20260906043011 | 14 | 249 | 9.7 | 25.7 | 0.00 | 0.00 | 0.00 | 82 | 1017.8 |
| 20260906042508 | 14 | 300 | 8.0 | 22.5 | 0.00 | 0.00 | 0.00 | 82 | 1017.7 |
| 20260906042008 | 14 | 291 | 11.3 | 25.7 | 0.00 | 0.00 | 0.00 | 82 | 1017.7 |
| 20260906041526 | 14 | 319 | 9.7 | 25.7 | 0.00 | 0.00 | 0.00 | 82 | 1017.6 |
| 20260906041014 | 14 | 302 | 8.0 | 27.4 | 0.00 | 0.00 | 0.00 | 82 | 1017.5 |
| 20260906040511 | 14 | 302 | 12.9 | 27.4 | 0.00 | 0.00 | 0.00 | 82 | 1017.3 |
| 20260906040034 | 13 | 292 | 8.0 | 20.9 | 0.00 | 0.00 | 0.00 | 82 | 1017.2 |
| 20260906035515 | 13 | 284 | 8.0 | 29.0 | 0.00 | 0.00 | 0.00 | 82 | 1017.0 |
| 20260906035013 | 13 | 302 | 6.4 | 29.0 | 0.00 | 0.00 | 0.00 | 81 | 1017.0 |
| 20260906034532 | 13 | 294 | 12.9 | 29.0 | 0.00 | 0.00 | 0.00 | 82 | 1016.7 |
| 20260906034006 | 13 | 292 | 11.3 | 29.0 | 0.00 | 0.00 | 0.00 | 83 | 1016.7 |
| 20260906033506 | 14 | 319 | 9.7 | 20.9 | 0.00 | 0.00 | 0.00 | 82 | 1016.7 |
| 20260906033012 | 14 | 315 | 6.4 | 20.9 | 0.00 | 0.00 | 0.00 | 82 | 1016.7 |
| 20260906032510 | 13 | 274 | 8.0 | 19.3 | 0.00 | 0.00 | 0.00 | 83 | 1016.7 |
| 20260906032017 | 13 | 261 | 8.0 | 19.3 | 0.00 | 0.00 | 0.00 | 83 | 1016.6 |
| 20260906031534 | 13 | 302 | 8.0 | 22.5 | 0.00 | 0.00 | 0.00 | 83 | 1016.6 |
| 20260906031012 | 13 | 301 | 11.3 | 24.1 | 0.00 | 0.00 | 0.00 | 83 | 1016.6 |
| 20260906030514 | 13 | 294 | 12.9 | 24.1 | 0.00 | 0.00 | 0.00 | 83 | 1016.6 |
| 20260906030026 | 13 | 314 | 12.9 | 24.1 | 0.00 | 0.00 | 0.00 | 82 | 1016.4 |
| 20260906025519 | 13 | 310 | 12.9 | 24.1 | 0.00 | 0.00 | 0.00 | 82 | 1016.4 |
| 20260906025018 | 13 | 292 | 12.9 | 30.6 | 0.00 | 0.00 | 0.00 | 82 | 1016.3 |
| 20260906024508 | 13 | 268 | 14.5 | 30.6 | 0.00 | 0.00 | 0.00 | 82 | 1016.3 |
| 20260906024006 | 13 | 267 | 12.9 | 40.2 | 0.00 | 0.00 | 0.00 | 82 | 1016.3 |
| 20260906023509 | 13 | 348 | 11.3 | 40.2 | 0.00 | 0.00 | 0.00 | 82 | 1016.3 |
| 20260906023016 | 13 | 273 | 12.9 | 25.7 | 0.00 | 0.00 | 0.00 | 82 | 1016.1 |
| 20260906022515 | 13 | 309 | 14.5 | 30.6 | 0.00 | 0.00 | 0.00 | 82 | 1016.2 |
| 20260906022014 | 13 | 311 | 14.5 | 30.6 | 0.00 | 0.00 | 0.00 | 82 | 1016.1 |
| 20260906021527 | 13 | 263 | 16.1 | 29.0 | 0.00 | 0.00 | 0.00 | 82 | 1016.0 |
| 20260906021012 | 13 | 286 | 16.1 | 29.0 | 0.00 | 0.00 | 0.00 | 81 | 1016.0 |
| 20260906020514 | 13 | 295 | 16.1 | 27.4 | 0.00 | 0.00 | 0.00 | 81 | 1016.0 |
| 20260906020030 | 13 | 251 | 16.1 | 25.7 | 0.00 | 0.00 | 0.00 | 81 | 1015.9 |
| 20260906015515 | 13 | 261 | 16.1 | 38.6 | 0.00 | 0.00 | 0.00 | 81 | 1015.9 |
| 20260906015015 | 13 | 311 | 17.7 | 38.6 | 0.00 | 0.00 | 0.00 | 81 | 1015.8 |
| 20260906014511 | 13 | 269 | 11.3 | 30.6 | 0.00 | 0.00 | 0.00 | 81 | 1015.8 |
| 20260906014006 | 14 | 270 | 14.5 | 30.6 | 0.00 | 0.00 | 0.00 | 81 | 1015.7 |
| 20260906013510 | 14 | 269 | 16.1 | 27.4 | 0.00 | 0.00 | 0.00 | 81 | 1015.7 |
| 20260906013018 | 14 | 325 | 12.9 | 33.8 | 0.00 | 0.00 | 0.00 | 81 | 1015.7 |
| 20260906012512 | 14 | 304 | 17.7 | 33.8 | 0.00 | 0.00 | 0.00 | 81 | 1015.6 |
| 20260906012015 | 14 | 292 | 19.3 | 30.6 | 0.00 | 0.00 | 0.00 | 81 | 1015.5 |
| 20260906011524 | 14 | 280 | 12.9 | 27.4 | 0.00 | 0.00 | 0.00 | 81 | 1015.5 |
| 20260906011016 | 14 | 279 | 16.1 | 27.4 | 0.00 | 0.00 | 0.00 | 81 | 1015.4 |
| 20260906010514 | 14 | 285 | 12.9 | 29.0 | 0.00 | 0.00 | 0.00 | 81 | 1015.5 |
| 20260906010033 | 14 | 279 | 9.7 | 32.2 | 0.00 | 0.00 | 0.00 | 81 | 1015.4 |
| 20260906005516 | 14 | 269 | 17.7 | 35.4 | 0.00 | 0.00 | 0.00 | 81 | 1015.3 |
| 20260906005020 | 14 | 260 | 11.3 | 40.2 | 0.00 | 0.00 | 0.00 | 81 | 1015.2 |
| 20260906004524 | 14 | 292 | 12.9 | 40.2 | 0.00 | 0.00 | 0.00 | 81 | 1015.1 |
| 20260906004009 | 14 | 297 | 11.3 | 25.7 | 0.00 | 0.00 | 0.00 | 81 | 1015.0 |
| 20260906003512 | 14 | 289 | 9.7 | 25.7 | 0.00 | 0.00 | 0.00 | 81 | 1015.0 |
| 20260906003024 | 14 | 252 | 11.3 | 29.0 | 0.00 | 0.00 | 0.00 | 80 | 1014.9 |
| 20260906002511 | 14 | 344 | 11.3 | 29.0 | 0.00 | 0.03 | 0.00 | 81 | 1014.7 |
| 20260906002016 | 14 | 335 | 14.5 | 35.4 | 0.00 | 0.25 | 0.00 | 80 | 1014.7 |
| 20260906001538 | 14 | 338 | 11.3 | 35.4 | 0.00 | 0.25 | 0.00 | 80 | 1014.7 |
| 20260906001023 | 14 | 291 | 14.5 | 35.4 | 0.00 | 0.38 | 0.00 | 80 | 1014.7 |
| 20260906000514 | 14 | 289 | 17.7 | 35.4 | 0.00 | 0.38 | 0.00 | 80 | 1014.6 |
| 20260906000028 | 14 | 282 | 14.5 | 30.6 | 0.00 | 0.38 | 0.00 | 80 | 1014.5 |
| 20260905235516 | 14 | 291 | 14.5 | 30.6 | 0.00 | 0.38 | 0.00 | 80 | 1014.4 |
| 20260905235009 | 14 | 255 | 16.1 | 30.6 | 0.00 | 0.38 | 0.00 | 80 | 1014.4 |
| 20260905234514 | 14 | 284 | 16.1 | 29.0 | 0.00 | 0.38 | 0.00 | 80 | 1014.2 |
| 20260905234013 | 14 | 255 | 14.5 | 30.6 | 0.00 | 0.38 | 0.00 | 80 | 1014.2 |
| 20260905233514 | 14 | 259 | 9.7 | 32.2 | 0.00 | 0.38 | 0.00 | 80 | 1014.1 |
| 20260905233021 | 14 | 297 | 12.9 | 37.0 | 0.00 | 0.38 | 0.00 | 80 | 1014.0 |
| 20260905232514 | 14 | 284 | 19.3 | 37.0 | 0.00 | 0.38 | 0.00 | 80 | 1014.0 |
| 20260905232013 | 14 | 277 | 11.3 | 32.2 | 0.00 | 0.38 | 0.00 | 80 | 1013.9 |
| 20260905231534 | 14 | 298 | 14.5 | 32.2 | 0.00 | 0.38 | 0.00 | 80 | 1013.9 |
| 20260905231016 | 14 | 307 | 14.5 | 32.2 | 0.00 | 0.38 | 0.00 | 80 | 1013.8 |
| 20260905230516 | 14 | 296 | 16.1 | 32.2 | 0.00 | 0.38 | 0.00 | 79 | 1013.7 |
| 20260905230031 | 14 | 292 | 19.3 | 32.2 | 0.00 | 0.38 | 0.00 | 80 | 1013.6 |
| 20260905225519 | 14 | 216 | 11.3 | 30.6 | 0.00 | 0.38 | 0.00 | 79 | 1013.6 |
| 20260905225008 | 14 | 269 | 16.1 | 32.2 | 0.00 | 0.38 | 0.00 | 79 | 1013.5 |
| 20260905224522 | 14 | 263 | 19.3 | 45.1 | 0.00 | 0.38 | 0.00 | 79 | 1013.5 |
| 20260905224018 | 14 | 291 | 16.1 | 45.1 | 0.00 | 0.38 | 0.00 | 79 | 1013.4 |
| 20260905223513 | 14 | 290 | 16.1 | 37.0 | 0.00 | 0.38 | 0.00 | 79 | 1013.3 |
| 20260905223027 | 14 | 260 | 19.3 | 37.0 | 0.00 | 0.38 | 0.00 | 79 | 1013.3 |
| 20260905222516 | 14 | 338 | 16.1 | 38.6 | 0.00 | 0.38 | 0.00 | 79 | 1013.2 |
| 20260905222018 | 14 | 300 | 14.5 | 41.8 | 0.00 | 0.38 | 0.00 | 79 | 1013.2 |
| 20260905221530 | 14 | 242 | 19.3 | 41.8 | 0.00 | 0.38 | 0.00 | 79 | 1013.1 |
| 20260905221014 | 14 | 282 | 17.7 | 38.6 | 0.00 | 0.38 | 0.00 | 78 | 1013.1 |
| 20260905220518 | 14 | 268 | 17.7 | 38.6 | 0.00 | 0.38 | 0.00 | 78 | 1013.0 |
| 20260905220036 | 14 | 328 | 16.1 | 37.0 | 0.00 | 0.38 | 0.00 | 78 | 1013.0 |
| 20260905215512 | 14 | 246 | 12.9 | 37.0 | 0.00 | 0.38 | 0.38 | 78 | 1012.9 |
| 20260905215010 | 14 | 281 | 14.5 | 41.8 | 0.00 | 0.38 | 0.38 | 78 | 1012.9 |
| 20260905214523 | 14 | 294 | 22.5 | 41.8 | 0.00 | 0.38 | 0.38 | 79 | 1012.8 |
| 20260905214013 | 14 | 239 | 17.7 | 41.8 | 0.00 | 0.38 | 0.38 | 78 | 1012.8 |
| 20260905213513 | 14 | 295 | 20.9 | 41.8 | 0.00 | 0.38 | 0.38 | 79 | 1012.7 |
| 20260905213028 | 14 | 269 | 16.1 | 41.8 | 0.00 | 0.38 | 0.38 | 79 | 1012.6 |